FW1502 Weather Reports


Display with metric or nautical units.
time (UTC)temp
F
wind
direction
speed
MPH
gust
MPH
rain 1hr
in
rain 24hr
in
rain mn
in
humidity
%
barometer
mb
20210308070050 37 28 2.0 5.0 0.00 0.00 0.00 64 1029.8
20210308064553 37 16 2.0 5.0 0.00 0.00 0.00 63 1029.8
20210308063058 38 10 2.0 5.0 0.00 0.00 0.00 65 1029.8
20210308061652 39 21 3.0 5.0 0.00 0.00 0.00 64 1029.9
20210308060200 39 47 3.0 5.0 0.00 0.00 0.00 63 1029.6
20210308054543 39 53 3.0 6.0 0.00 0.00 0.00 62 1029.5
20210308053316 39 61 2.0 5.0 0.00 0.00 0.00 64 1029.5
20210308051521 39 47 2.0 5.0 0.00 0.00 0.00 62 1029.4
20210308050143 39 80 3.0 6.0 0.00 0.00 0.00 61 1029.5
20210308044520 39 44 2.0 5.0 0.00 0.00 0.00 61 1029.6
20210308043206 39 46 3.0 7.0 0.00 0.00 0.00 62 1029.7
20210308041540 39 65 3.0 8.0 0.00 0.00 0.00 62 1029.8
20210308040112 40 59 3.0 7.0 0.00 0.00 0.00 61 1029.8
20210308034515 40 55 3.0 6.0 0.00 0.00 0.00 61 1029.8
20210308033030 40 31 4.0 11.0 0.00 0.00 0.00 60 1029.8
20210308031543 40 9 4.0 12.0 0.00 0.00 0.00 60 1029.7
20210308030022 40 28 6.0 11.0 0.00 0.00 0.00 60 1029.5
20210308024521 40 55 5.0 13.0 0.00 0.00 0.00 61 1029.7
20210308023117 40 9 7.0 14.0 0.00 0.00 0.00 60 1029.6
20210308021515 40 49 8.0 13.0 0.00 0.00 0.00 59 1029.4
20210308020011 40 32 6.0 12.0 0.00 0.00 0.00 61 1029.4
20210308014639 40 30 6.0 12.0 0.00 0.00 0.00 61 1029.3
20210308013254 40 61 7.0 13.0 0.00 0.00 0.00 58 1029.0
20210308011631 40 5 6.0 13.0 0.00 0.00 0.00 59 1028.8
20210308010324 40 40 8.0 13.0 0.00 0.00 0.00 59 1028.6
20210308005235 40 355 7.0 13.0 0.00 0.00 0.00 60 1028.5
20210308003323 40 32 7.0 13.0 0.00 0.00 0.00 58 1028.4
20210308001557 40 26 8.0 13.0 0.00 0.00 0.00 59 1028.1
20210308000727 40 49 9.0 16.0 0.00 0.00 0.00 57 1027.9
20210307234607 40 13 9.0 16.0 0.00 0.00 0.00 59 1027.7
20210307233402 40 26 9.0 15.0 0.00 0.00 0.00 59 1027.3
20210307231625 40 15 9.0 16.0 0.00 0.00 0.00 62 1027.1
20210307230251 40 344 9.0 18.0 0.00 0.00 0.00 60 1026.8
20210307224924 40 360 11.0 17.0 0.00 0.00 0.00 58 1026.5
20210307223307 41 355 12.0 18.0 0.00 0.00 0.00 61 1026.2
20210307221605 41 37 12.0 18.0 0.00 0.00 0.00 63 1026.0
20210307220156 41 317 11.0 18.0 0.00 0.00 0.00 63 1026.1
20210307214601 41 9 13.0 18.0 0.00 0.00 0.00 61 1025.9
20210307213512 42 32 12.0 19.0 0.00 0.00 0.00 61 1025.7
20210307211616 42 24 11.0 18.0 0.00 0.00 0.00 60 1025.7
20210307210113 42 12 14.0 22.0 0.00 0.00 0.00 58 1025.7
20210307204610 42 333 10.0 19.0 0.00 0.00 0.00 61 1025.8
20210307203121 42 348 13.0 21.0 0.00 0.00 0.00 57 1025.8
20210307201610 43 355 13.0 20.0 0.00 0.00 0.00 56 1025.8
20210307200223 43 360 13.0 21.0 0.00 0.00 0.00 55 1025.8
20210307194544 43 31 13.0 20.0 0.00 0.00 0.00 54 1025.8
20210307193048 43 350 13.0 21.0 0.00 0.00 0.00 55 1025.7
20210307191606 43 28 13.0 23.0 0.00 0.00 0.00 53 1025.9
20210307190054 43 355 15.0 22.0 0.00 0.00 0.00 51 1025.9
20210307184608 44 355 10.0 18.0 0.00 0.00 0.00 50 1026.1
20210307183129 44 34 11.0 16.0 0.00 0.00 0.00 55 1026.2
20210307181551 44 360 11.0 19.0 0.00 0.00 0.00 57 1026.5
20210307180059 43 355 8.0 15.0 0.00 0.00 0.00 61 1026.8
20210307174552 44 355 8.0 15.0 0.00 0.00 0.00 61 1027.1
20210307173405 44 360 10.0 14.0 0.00 0.00 0.00 57 1027.2
20210307171553 44 9 9.0 13.0 0.00 0.00 0.00 59 1027.4
20210307170222 44 42 9.0 15.0 0.00 0.00 0.00 61 1027.7
20210307164525 43 34 8.0 15.0 0.00 0.00 0.00 60 1027.7
20210307163121 43 28 8.0 15.0 0.00 0.00 0.00 63 1027.8
20210307161603 43 17 11.0 16.0 0.00 0.00 0.00 61 1027.8
20210307160129 43 355 9.0 16.0 0.00 0.00 0.00 60 1027.8
20210307154528 43 343 9.0 15.0 0.00 0.00 0.00 62 1027.7
20210307153025 43 15 9.0 18.0 0.00 0.00 0.00 63 1027.6
20210307151559 43 340 11.0 16.0 0.00 0.00 0.00 61 1027.4
20210307150048 43 355 9.0 18.0 0.00 0.00 0.00 64 1027.3
20210307144521 42 40 10.0 18.0 0.00 0.00 0.00 65 1027.2
20210307143034 42 55 11.0 20.0 0.00 0.00 0.00 66 1027.1
20210307141540 42 47 12.0 19.0 0.00 0.00 0.00 68 1027.0
20210307140050 42 36 12.0 18.0 0.00 0.00 0.00 69 1026.7
20210307134705 42 30 12.0 22.0 0.00 0.00 0.00 68 1026.7
20210307133205 42 5 13.0 19.0 0.00 0.00 0.00 70 1026.6
20210307131738 42 18 11.0 17.0 0.00 0.00 0.00 70 1026.7
20210307130226 42 63 9.0 15.0 0.00 0.00 0.00 71 1026.5
20210307124654 41 87 9.0 16.0 0.00 0.00 0.00 74 1026.1
20210307123132 41 17 9.0 15.0 0.00 0.00 0.00 77 1026.0
20210307121836 41 22 7.0 17.0 0.00 0.00 0.00 79 1025.5
20210307120133 41 14 7.0 14.0 0.00 0.00 0.00 79 1025.3
20210307114608 41 80 9.0 16.0 0.00 0.00 0.00 79 1025.0
20210307113226 41 44 8.0 15.0 0.00 0.00 0.00 79 1025.0
20210307111843 41 54 8.0 16.0 0.00 0.00 0.00 78 1024.8
20210307110429 41 41 7.0 14.0 0.00 0.00 0.00 76 1024.6
20210307104637 41 31 9.0 15.0 0.00 0.00 0.00 72 1024.4
20210307103116 41 38 10.0 15.0 0.00 0.00 0.00 72 1024.2
20210307101614 41 51 8.0 16.0 0.00 0.00 0.00 71 1024.1
20210307100323 41 33 9.0 15.0 0.00 0.00 0.00 73 1024.0
20210307094624 41 5 9.0 15.0 0.00 0.00 0.00 74 1023.8
20210307093138 41 29 8.0 15.0 0.00 0.00 0.00 76 1023.7
20210307091602 41 78 7.0 13.0 0.00 0.00 0.00 74 1023.5
20210307090142 41 10 7.0 13.0 0.00 0.00 0.00 77 1023.4
20210307084529 41 49 6.0 10.0 0.00 0.00 0.00 80 1023.2
20210307083108 41 19 4.0 11.0 0.00 0.00 0.00 80 1023.2
20210307081552 41 37 5.0 12.0 0.00 0.00 0.00 80 1023.2
20210307080058 41 62 5.0 10.0 0.00 0.00 0.00 80 1023.0
20210307074527 41 59 5.0 11.0 0.00 0.00 0.00 80 1023.0
20210307073057 41 32 6.0 10.0 0.00 0.00 0.00 80 1023.1
20210307071534 41 69 6.0 14.0 0.00 0.00 0.00 81 1023.2